Year,Month,Day,Hour,Minute,Value (Times are PST for temperature in C)
2021,03,31,00,00,3.50
2021,03,31,00,01,3.40
2021,03,31,00,02,3.40
2021,03,31,00,03,3.40
2021,03,31,00,04,3.40
2021,03,31,00,05,3.40
2021,03,31,00,06,3.40
2021,03,31,00,07,3.40
2021,03,31,00,08,3.40
2021,03,31,00,09,3.40
2021,03,31,00,10,3.40
2021,03,31,00,11,3.40
2021,03,31,00,12,3.40
2021,03,31,00,13,3.40
2021,03,31,00,14,3.40
2021,03,31,00,15,3.30
2021,03,31,00,16,3.30
2021,03,31,00,17,3.30
2021,03,31,00,18,3.30
2021,03,31,00,19,3.30
2021,03,31,00,20,3.30
2021,03,31,00,21,3.30
2021,03,31,00,22,3.30
2021,03,31,00,23,3.30
2021,03,31,00,24,3.30
2021,03,31,00,25,3.20
2021,03,31,00,26,3.20
2021,03,31,00,27,3.20
2021,03,31,00,28,3.20
2021,03,31,00,29,3.20
2021,03,31,00,30,3.20
2021,03,31,00,31,3.10
2021,03,31,00,32,3.10
2021,03,31,00,33,3.10
2021,03,31,00,34,3.10
2021,03,31,00,35,3.10
2021,03,31,00,36,3.10
2021,03,31,00,37,3.10
2021,03,31,00,38,3.10
2021,03,31,00,39,3.00
2021,03,31,00,40,3.00
2021,03,31,00,41,3.10
2021,03,31,00,42,3.00
2021,03,31,00,43,3.00
2021,03,31,00,44,3.00
2021,03,31,00,45,3.00
2021,03,31,00,46,3.00
2021,03,31,00,47,2.90
2021,03,31,00,48,3.00
2021,03,31,00,49,2.90
2021,03,31,00,50,2.90
2021,03,31,00,51,2.90
2021,03,31,00,52,2.90
2021,03,31,00,53,2.90
2021,03,31,00,54,2.90
2021,03,31,00,55,2.90
2021,03,31,00,56,2.90
2021,03,31,00,57,2.90
2021,03,31,00,58,2.80
2021,03,31,00,59,2.80
2021,03,31,01,00,2.80
2021,03,31,01,01,2.80
2021,03,31,01,02,2.80
2021,03,31,01,03,2.80
2021,03,31,01,04,2.80
2021,03,31,01,05,2.80
2021,03,31,01,06,2.80
2021,03,31,01,07,2.80
2021,03,31,01,08,2.70
2021,03,31,01,09,2.70
2021,03,31,01,10,2.70
2021,03,31,01,11,2.70
2021,03,31,01,12,2.70
2021,03,31,01,13,2.70
2021,03,31,01,14,2.70
2021,03,31,01,15,2.70
2021,03,31,01,16,2.70
2021,03,31,01,17,2.70
2021,03,31,01,18,2.60
2021,03,31,01,19,2.60
2021,03,31,01,20,2.60
2021,03,31,01,21,2.60
2021,03,31,01,22,2.60
2021,03,31,01,23,2.60
2021,03,31,01,24,2.60
2021,03,31,01,25,2.60
2021,03,31,01,26,2.60
2021,03,31,01,27,2.60
2021,03,31,01,28,2.60
2021,03,31,01,29,2.60
2021,03,31,01,30,2.60
2021,03,31,01,31,2.60
2021,03,31,01,32,2.60
2021,03,31,01,33,2.60
2021,03,31,01,34,2.50
2021,03,31,01,35,2.50
2021,03,31,01,36,2.50
2021,03,31,01,37,2.60
2021,03,31,01,38,2.60
2021,03,31,01,39,2.60
2021,03,31,01,40,2.60
2021,03,31,01,41,2.50
2021,03,31,01,42,2.50
2021,03,31,01,43,2.60
2021,03,31,01,44,2.60
2021,03,31,01,45,2.60
2021,03,31,01,46,2.60
2021,03,31,01,47,2.60
2021,03,31,01,48,2.50
2021,03,31,01,49,2.50
2021,03,31,01,50,2.50
2021,03,31,01,51,2.50
2021,03,31,01,52,2.50
2021,03,31,01,53,2.50
2021,03,31,01,54,2.50
2021,03,31,01,55,2.50
2021,03,31,01,56,2.50
2021,03,31,01,57,2.60
2021,03,31,01,58,2.60
2021,03,31,01,59,2.60
2021,03,31,02,00,2.60
2021,03,31,02,01,2.60
2021,03,31,02,02,2.60
2021,03,31,02,03,2.70
2021,03,31,02,04,2.70
2021,03,31,02,05,2.70
2021,03,31,02,06,2.70
2021,03,31,02,07,2.70
2021,03,31,02,08,2.70
2021,03,31,02,09,2.70
2021,03,31,02,10,2.70
2021,03,31,02,11,2.70
2021,03,31,02,12,2.70
2021,03,31,02,13,2.70
2021,03,31,02,14,2.70
2021,03,31,02,15,2.70
2021,03,31,02,16,2.70
2021,03,31,02,17,2.60
2021,03,31,02,18,2.60
2021,03,31,02,19,2.60
2021,03,31,02,20,2.60
2021,03,31,02,21,2.60
2021,03,31,02,22,2.60
2021,03,31,02,23,2.60
2021,03,31,02,24,2.60
2021,03,31,02,25,2.60
2021,03,31,02,26,2.60
2021,03,31,02,27,2.60
2021,03,31,02,28,2.60
2021,03,31,02,29,2.60
2021,03,31,02,30,2.60
2021,03,31,02,31,2.60
2021,03,31,02,32,2.60
2021,03,31,02,33,2.60
2021,03,31,02,34,2.60
2021,03,31,02,35,2.60
2021,03,31,02,36,2.60
2021,03,31,02,37,2.60
2021,03,31,02,38,2.60
2021,03,31,02,39,2.60
2021,03,31,02,40,2.60
2021,03,31,02,41,2.50
2021,03,31,02,42,2.60
2021,03,31,02,43,2.50
2021,03,31,02,44,2.50
2021,03,31,02,45,2.50
2021,03,31,02,46,2.60
2021,03,31,02,47,2.50
2021,03,31,02,48,2.50
2021,03,31,02,49,2.50
2021,03,31,02,50,2.60
2021,03,31,02,51,2.60
2021,03,31,02,52,2.50
2021,03,31,02,53,2.60
2021,03,31,02,54,2.60
2021,03,31,02,55,2.60
2021,03,31,02,56,2.50
2021,03,31,02,57,2.60
2021,03,31,02,58,2.50
2021,03,31,02,59,2.50
2021,03,31,03,00,2.50
2021,03,31,03,01,2.50
2021,03,31,03,02,2.50
2021,03,31,03,03,2.50
2021,03,31,03,04,2.50
2021,03,31,03,05,2.50
2021,03,31,03,06,2.40
2021,03,31,03,07,2.40
2021,03,31,03,08,2.40
2021,03,31,03,09,2.40
2021,03,31,03,10,2.40
2021,03,31,03,11,2.40
2021,03,31,03,12,2.40
2021,03,31,03,13,2.40
2021,03,31,03,14,2.40
2021,03,31,03,15,2.40
2021,03,31,03,16,2.40
2021,03,31,03,17,2.40
2021,03,31,03,18,2.40
2021,03,31,03,19,2.40
2021,03,31,03,20,2.30
2021,03,31,03,21,2.30
2021,03,31,03,22,2.30
2021,03,31,03,23,2.30
2021,03,31,03,24,2.30
2021,03,31,03,25,2.30
2021,03,31,03,26,2.30
2021,03,31,03,27,2.30
2021,03,31,03,28,2.30
2021,03,31,03,29,2.30
2021,03,31,03,30,2.30
2021,03,31,03,31,2.30
2021,03,31,03,32,2.30
2021,03,31,03,33,2.30
2021,03,31,03,34,2.30
2021,03,31,03,35,2.30
2021,03,31,03,36,2.30
2021,03,31,03,37,2.30
2021,03,31,03,38,2.30
2021,03,31,03,39,2.30
2021,03,31,03,40,2.30
2021,03,31,03,41,2.30
2021,03,31,03,42,2.30
2021,03,31,03,43,2.30
2021,03,31,03,44,2.30
2021,03,31,03,45,2.30
2021,03,31,03,46,2.30
2021,03,31,03,47,2.30
2021,03,31,03,48,2.30
2021,03,31,03,49,2.30
2021,03,31,03,50,2.40
2021,03,31,03,51,2.40
2021,03,31,03,52,2.40
2021,03,31,03,53,2.40
2021,03,31,03,54,2.40
2021,03,31,03,55,2.40
2021,03,31,03,56,2.40
2021,03,31,03,57,2.50
2021,03,31,03,58,2.50
2021,03,31,03,59,2.50
2021,03,31,04,00,2.50
2021,03,31,04,01,2.60
2021,03,31,04,02,2.60
2021,03,31,04,03,2.60
2021,03,31,04,04,2.60
2021,03,31,04,05,2.70
2021,03,31,04,06,2.70
2021,03,31,04,07,2.70
2021,03,31,04,08,2.70
2021,03,31,04,09,2.80
2021,03,31,04,10,2.80
2021,03,31,04,11,2.80
2021,03,31,04,12,2.80
2021,03,31,04,13,2.80
2021,03,31,04,14,2.80
2021,03,31,04,15,2.80
2021,03,31,04,16,2.80
2021,03,31,04,17,2.90
2021,03,31,04,18,2.90
2021,03,31,04,19,2.90
2021,03,31,04,20,2.90
2021,03,31,04,21,2.90
2021,03,31,04,22,2.90
2021,03,31,04,23,2.90
2021,03,31,04,24,2.90
2021,03,31,04,25,2.90
2021,03,31,04,26,2.90
2021,03,31,04,27,2.90
2021,03,31,04,28,2.90
2021,03,31,04,29,2.90
2021,03,31,04,30,2.90
2021,03,31,04,31,2.90
2021,03,31,04,32,2.90
2021,03,31,04,33,2.90
2021,03,31,04,34,2.90
2021,03,31,04,35,2.90
2021,03,31,04,36,2.90
2021,03,31,04,37,2.90
2021,03,31,04,38,2.90
2021,03,31,04,39,2.90
2021,03,31,04,40,2.90
2021,03,31,04,41,2.90
2021,03,31,04,42,2.90
2021,03,31,04,43,2.90
2021,03,31,04,44,2.90
2021,03,31,04,45,2.90
2021,03,31,04,46,2.90
2021,03,31,04,47,2.90
2021,03,31,04,48,2.90
2021,03,31,04,49,2.80
2021,03,31,04,50,2.80
2021,03,31,04,51,2.80
2021,03,31,04,52,2.80
2021,03,31,04,53,2.80
2021,03,31,04,54,2.80
2021,03,31,04,55,2.90
2021,03,31,04,56,2.90
2021,03,31,04,57,2.90
2021,03,31,04,58,2.90
2021,03,31,04,59,2.90
2021,03,31,05,00,2.90
2021,03,31,05,01,2.90
2021,03,31,05,02,2.90
2021,03,31,05,03,2.90
2021,03,31,05,04,3.00
2021,03,31,05,05,2.90
2021,03,31,05,06,3.00
2021,03,31,05,07,3.00
2021,03,31,05,08,3.00
2021,03,31,05,09,3.00
2021,03,31,05,10,3.00
2021,03,31,05,11,3.00
2021,03,31,05,12,3.00
2021,03,31,05,13,3.00
2021,03,31,05,14,3.00
2021,03,31,05,15,3.00
2021,03,31,05,16,3.00
2021,03,31,05,17,3.00
2021,03,31,05,18,3.00
2021,03,31,05,19,3.00
2021,03,31,05,20,3.00
2021,03,31,05,21,3.00
2021,03,31,05,22,3.00
2021,03,31,05,23,3.00
2021,03,31,05,24,3.00
2021,03,31,05,25,3.00
2021,03,31,05,26,3.00
2021,03,31,05,27,3.00
2021,03,31,05,28,3.00
2021,03,31,05,29,3.00
2021,03,31,05,30,3.00
2021,03,31,05,31,2.90
2021,03,31,05,32,2.90
2021,03,31,05,33,2.90
2021,03,31,05,34,2.90
2021,03,31,05,35,2.90
2021,03,31,05,36,2.90
2021,03,31,05,37,2.90
2021,03,31,05,38,2.90
2021,03,31,05,39,2.90
2021,03,31,05,40,2.90
2021,03,31,05,41,2.90
2021,03,31,05,42,2.80
2021,03,31,05,43,2.80
2021,03,31,05,44,2.80
2021,03,31,05,45,2.80
2021,03,31,05,46,2.80
2021,03,31,05,47,2.80
2021,03,31,05,48,2.70
2021,03,31,05,49,2.70
2021,03,31,05,50,2.70
2021,03,31,05,51,2.70
2021,03,31,05,52,2.60
2021,03,31,05,53,2.60
2021,03,31,05,54,2.60
2021,03,31,05,55,2.50
2021,03,31,05,56,2.50
2021,03,31,05,57,2.40
2021,03,31,05,58,2.40
2021,03,31,05,59,2.40
2021,03,31,06,00,2.30
2021,03,31,06,01,2.30
2021,03,31,06,02,2.20
2021,03,31,06,03,2.20
2021,03,31,06,04,2.20
2021,03,31,06,05,2.10
2021,03,31,06,06,2.10
2021,03,31,06,07,2.10
2021,03,31,06,08,2.00
2021,03,31,06,09,1.90
2021,03,31,06,10,1.90
2021,03,31,06,11,1.90
2021,03,31,06,12,1.80
2021,03,31,06,13,1.80
2021,03,31,06,14,1.80
2021,03,31,06,15,1.70
2021,03,31,06,16,1.70
2021,03,31,06,17,1.70
2021,03,31,06,18,1.60
2021,03,31,06,19,1.60
2021,03,31,06,20,1.60
2021,03,31,06,21,1.60
2021,03,31,06,22,1.50
2021,03,31,06,23,1.50
2021,03,31,06,24,1.40
2021,03,31,06,25,1.40
2021,03,31,06,26,1.30
2021,03,31,06,27,1.30
2021,03,31,06,28,1.30
2021,03,31,06,29,1.30
2021,03,31,06,30,1.30
2021,03,31,06,31,1.20
2021,03,31,06,32,1.20
2021,03,31,06,33,1.20
2021,03,31,06,34,1.20
2021,03,31,06,35,1.10
2021,03,31,06,36,1.10
2021,03,31,06,37,1.10
2021,03,31,06,38,1.00
2021,03,31,06,39,1.00
2021,03,31,06,40,1.00
2021,03,31,06,41,0.90
2021,03,31,06,42,0.90
2021,03,31,06,43,0.90
2021,03,31,06,44,0.90
2021,03,31,06,45,0.80
2021,03,31,06,46,0.80
2021,03,31,06,47,0.80
2021,03,31,06,48,0.80
2021,03,31,06,49,0.80
2021,03,31,06,50,0.70
2021,03,31,06,51,0.70
2021,03,31,06,52,0.70
2021,03,31,06,53,0.70
2021,03,31,06,54,0.70
2021,03,31,06,55,0.70
2021,03,31,06,56,0.70
2021,03,31,06,57,0.70
2021,03,31,06,58,0.70
2021,03,31,06,59,0.70
2021,03,31,07,00,0.80
2021,03,31,07,01,0.80
2021,03,31,07,02,0.80
2021,03,31,07,03,0.90
2021,03,31,07,04,0.90
2021,03,31,07,05,0.90
2021,03,31,07,06,0.90
2021,03,31,07,07,1.00
2021,03,31,07,08,1.00
2021,03,31,07,09,1.00
2021,03,31,07,10,1.10
2021,03,31,07,11,1.10
2021,03,31,07,12,1.10
2021,03,31,07,13,1.20
2021,03,31,07,14,1.20
2021,03,31,07,15,1.20
2021,03,31,07,16,1.30
2021,03,31,07,17,1.30
2021,03,31,07,18,1.30
2021,03,31,07,19,1.30
2021,03,31,07,20,1.30
2021,03,31,07,21,1.40
2021,03,31,07,22,1.40
2021,03,31,07,23,1.40
2021,03,31,07,24,1.50
2021,03,31,07,25,1.50
2021,03,31,07,26,1.50
2021,03,31,07,27,1.50
2021,03,31,07,28,1.60
2021,03,31,07,29,1.60
2021,03,31,07,30,1.60
2021,03,31,07,31,1.70
2021,03,31,07,32,1.70
2021,03,31,07,33,1.70
2021,03,31,07,34,1.70
2021,03,31,07,35,1.70
2021,03,31,07,36,1.80
2021,03,31,07,37,1.80
2021,03,31,07,38,1.80
2021,03,31,07,39,1.80
2021,03,31,07,40,1.90
2021,03,31,07,41,1.90
2021,03,31,07,42,1.90
2021,03,31,07,43,2.00
2021,03,31,07,44,2.00
2021,03,31,07,45,2.00
2021,03,31,07,46,2.10
2021,03,31,07,47,2.10
2021,03,31,07,48,2.10
2021,03,31,07,49,2.20
2021,03,31,07,50,2.20
2021,03,31,07,51,2.20
2021,03,31,07,52,2.30
2021,03,31,07,53,2.30
2021,03,31,07,54,2.40
2021,03,31,07,55,2.50
2021,03,31,07,56,2.50
2021,03,31,07,57,2.60
2021,03,31,07,58,2.70
2021,03,31,07,59,2.70
2021,03,31,08,00,2.80
2021,03,31,08,01,2.90
2021,03,31,08,02,2.90
2021,03,31,08,03,3.00
2021,03,31,08,04,3.10
2021,03,31,08,05,3.10
2021,03,31,08,06,3.20
2021,03,31,08,07,3.30
2021,03,31,08,08,3.40
2021,03,31,08,09,3.40
2021,03,31,08,10,3.50
2021,03,31,08,11,3.60
2021,03,31,08,12,3.60
2021,03,31,08,13,3.70
2021,03,31,08,14,3.80
2021,03,31,08,15,3.90
2021,03,31,08,16,3.90
2021,03,31,08,17,4.00
2021,03,31,08,18,4.10
2021,03,31,08,19,4.10
2021,03,31,08,20,4.20
2021,03,31,08,21,4.30
2021,03,31,08,22,4.30
2021,03,31,08,23,4.40
2021,03,31,08,24,4.40
2021,03,31,08,25,4.50
2021,03,31,08,26,4.60
2021,03,31,08,27,4.60
2021,03,31,08,28,4.70
2021,03,31,08,29,4.80
2021,03,31,08,30,4.80
2021,03,31,08,31,4.80
2021,03,31,08,32,4.90
2021,03,31,08,33,5.00
2021,03,31,08,34,5.00
2021,03,31,08,35,5.10
2021,03,31,08,36,5.10
2021,03,31,08,37,5.10
2021,03,31,08,38,5.20
2021,03,31,08,39,5.20
2021,03,31,08,40,5.30
2021,03,31,08,41,5.30
2021,03,31,08,42,5.30
2021,03,31,08,43,5.40
2021,03,31,08,44,5.40
2021,03,31,08,45,5.40
2021,03,31,08,46,5.40
2021,03,31,08,47,5.50
2021,03,31,08,48,5.50
2021,03,31,08,49,5.50
2021,03,31,08,50,5.60
2021,03,31,08,51,5.60
2021,03,31,08,52,5.60
2021,03,31,08,53,5.70
2021,03,31,08,54,5.70
2021,03,31,08,55,5.70
2021,03,31,08,56,5.80
2021,03,31,08,57,5.80
2021,03,31,08,58,5.80
2021,03,31,08,59,5.80
2021,03,31,09,00,5.80
2021,03,31,09,01,5.80
2021,03,31,09,02,5.90
2021,03,31,09,03,5.90
2021,03,31,09,04,5.90
2021,03,31,09,05,5.90
2021,03,31,09,06,6.00
2021,03,31,09,07,6.00
2021,03,31,09,08,6.10
2021,03,31,09,09,6.10
2021,03,31,09,10,6.10
2021,03,31,09,11,6.10
2021,03,31,09,12,6.10
2021,03,31,09,13,6.20
2021,03,31,09,14,6.20
2021,03,31,09,15,6.20
2021,03,31,09,16,6.30
2021,03,31,09,17,6.30
2021,03,31,09,18,6.30
2021,03,31,09,19,6.30
2021,03,31,09,20,6.40
2021,03,31,09,21,6.40
2021,03,31,09,22,6.40
2021,03,31,09,23,6.40
2021,03,31,09,24,6.40
2021,03,31,09,25,6.50
2021,03,31,09,26,6.50
2021,03,31,09,27,6.60
2021,03,31,09,28,6.60
2021,03,31,09,29,6.60
2021,03,31,09,30,6.60
2021,03,31,09,31,6.60
2021,03,31,09,32,6.60
2021,03,31,09,33,6.60
2021,03,31,09,34,6.60
2021,03,31,09,35,6.60
2021,03,31,09,36,6.60
2021,03,31,09,37,6.60
2021,03,31,09,38,6.60
2021,03,31,09,39,6.60
2021,03,31,09,40,6.80
2021,03,31,09,41,6.80
2021,03,31,09,42,6.80
2021,03,31,09,43,6.90
2021,03,31,09,44,6.90
2021,03,31,09,45,6.90
2021,03,31,09,46,7.00
2021,03,31,09,47,7.00
2021,03,31,09,48,7.00
2021,03,31,09,49,7.10
2021,03,31,09,50,7.10
2021,03,31,09,51,7.10
2021,03,31,09,52,7.10
2021,03,31,09,53,7.20
2021,03,31,09,54,7.20
2021,03,31,09,55,7.20
2021,03,31,09,56,7.30
2021,03,31,09,57,7.30
2021,03,31,09,58,7.30
2021,03,31,09,59,7.40
2021,03,31,10,00,7.40
2021,03,31,10,01,7.40
2021,03,31,10,02,7.40
2021,03,31,10,03,7.40
2021,03,31,10,04,7.40
2021,03,31,10,05,7.50
2021,03,31,10,06,7.50
2021,03,31,10,07,7.60
2021,03,31,10,08,7.60
2021,03,31,10,09,7.60
2021,03,31,10,10,7.70
2021,03,31,10,11,7.70
2021,03,31,10,12,7.70
2021,03,31,10,13,7.70
2021,03,31,10,14,7.80
2021,03,31,10,15,7.80
2021,03,31,10,16,7.80
2021,03,31,10,17,7.90
2021,03,31,10,18,7.90
2021,03,31,10,19,7.90
2021,03,31,10,20,7.90
2021,03,31,10,21,7.90
2021,03,31,10,22,7.90
2021,03,31,10,23,7.90
2021,03,31,10,24,7.90
2021,03,31,10,25,8.00
2021,03,31,10,26,8.00
2021,03,31,10,27,8.00
2021,03,31,10,28,8.00
2021,03,31,10,29,8.00
2021,03,31,10,30,8.00
2021,03,31,10,31,8.10
2021,03,31,10,32,8.00
2021,03,31,10,33,8.00
2021,03,31,10,34,8.00
2021,03,31,10,35,8.00
2021,03,31,10,36,8.10
2021,03,31,10,37,8.00
2021,03,31,10,38,8.10
2021,03,31,10,39,8.10
2021,03,31,10,40,8.10
2021,03,31,10,41,8.20
2021,03,31,10,42,8.20
2021,03,31,10,43,8.30
2021,03,31,10,44,8.30
2021,03,31,10,45,8.30
2021,03,31,10,46,8.40
2021,03,31,10,47,8.40
2021,03,31,10,48,8.40
2021,03,31,10,49,8.50
2021,03,31,10,50,8.40
2021,03,31,10,51,8.40
2021,03,31,10,52,8.40
2021,03,31,10,53,8.40
2021,03,31,10,54,8.50
2021,03,31,10,55,8.50
2021,03,31,10,56,8.50
2021,03,31,10,57,8.50
2021,03,31,10,58,8.60
2021,03,31,10,59,8.60
2021,03,31,11,00,8.60
2021,03,31,11,01,8.60
2021,03,31,11,02,8.70
2021,03,31,11,03,8.70
2021,03,31,11,04,8.70
2021,03,31,11,05,8.70
2021,03,31,11,06,8.70
2021,03,31,11,07,8.70
2021,03,31,11,08,8.70
2021,03,31,11,09,8.70
2021,03,31,11,10,8.70
2021,03,31,11,11,8.70
2021,03,31,11,12,8.80
2021,03,31,11,13,8.80
2021,03,31,11,14,8.80
2021,03,31,11,15,8.80
2021,03,31,11,16,8.80
2021,03,31,11,17,8.90
2021,03,31,11,18,8.90
2021,03,31,11,19,8.80
2021,03,31,11,20,8.80
2021,03,31,11,21,8.80
2021,03,31,11,22,8.70
2021,03,31,11,23,8.70
2021,03,31,11,24,8.70
2021,03,31,11,25,8.70
2021,03,31,11,26,8.70
2021,03,31,11,27,8.80
2021,03,31,11,28,8.80
2021,03,31,11,29,8.80
2021,03,31,11,30,8.90
2021,03,31,11,31,8.90
2021,03,31,11,32,9.00
2021,03,31,11,33,9.00
2021,03,31,11,34,9.10
2021,03,31,11,35,9.00
2021,03,31,11,36,9.00
2021,03,31,11,37,9.00
2021,03,31,11,38,8.90
2021,03,31,11,39,8.90
2021,03,31,11,40,8.80
2021,03,31,11,41,8.70
2021,03,31,11,42,8.70
2021,03,31,11,43,8.60
2021,03,31,11,44,8.60
2021,03,31,11,45,8.60
2021,03,31,11,46,8.70
2021,03,31,11,47,8.70
2021,03,31,11,48,8.80
2021,03,31,11,49,8.80
2021,03,31,11,50,8.80
2021,03,31,11,51,8.90
2021,03,31,11,52,8.90
2021,03,31,11,53,9.00
2021,03,31,11,54,9.10
2021,03,31,11,55,9.10
2021,03,31,11,56,9.20
2021,03,31,11,57,9.20
2021,03,31,11,58,9.20
2021,03,31,11,59,9.30
2021,03,31,12,00,9.30
2021,03,31,12,01,9.40
2021,03,31,12,02,9.40
2021,03,31,12,03,9.40
2021,03,31,12,04,9.40
2021,03,31,12,05,9.40
2021,03,31,12,06,9.40
2021,03,31,12,07,9.50
2021,03,31,12,08,9.60
2021,03,31,12,09,9.60
2021,03,31,12,10,9.70
2021,03,31,12,11,9.70
2021,03,31,12,12,9.80
2021,03,31,12,13,9.80
2021,03,31,12,14,9.90
2021,03,31,12,15,9.90
2021,03,31,12,16,9.90
2021,03,31,12,17,10.00
2021,03,31,12,18,10.00
2021,03,31,12,19,10.10
2021,03,31,12,20,10.20
2021,03,31,12,21,10.20
2021,03,31,12,22,10.30
2021,03,31,12,23,10.40
2021,03,31,12,24,10.40
2021,03,31,12,25,10.50
2021,03,31,12,26,10.50
2021,03,31,12,27,10.50
2021,03,31,12,28,10.60
2021,03,31,12,29,10.60
2021,03,31,12,30,10.60
2021,03,31,12,31,10.60
2021,03,31,12,32,10.60
2021,03,31,12,33,10.60
2021,03,31,12,34,10.70
2021,03,31,12,35,10.70
2021,03,31,12,36,10.80
2021,03,31,12,37,10.80
2021,03,31,12,38,10.80
2021,03,31,12,39,10.80
2021,03,31,12,40,10.80
2021,03,31,12,41,10.80
2021,03,31,12,42,10.80
2021,03,31,12,43,10.90
2021,03,31,12,44,10.90
2021,03,31,12,45,10.90
2021,03,31,12,46,10.90
2021,03,31,12,47,10.90
2021,03,31,12,48,10.90
2021,03,31,12,49,10.90
2021,03,31,12,50,11.00
2021,03,31,12,51,11.00
2021,03,31,12,52,11.00
2021,03,31,12,53,11.00
2021,03,31,12,54,11.10
2021,03,31,12,55,11.10
2021,03,31,12,56,11.10
2021,03,31,12,57,11.00
2021,03,31,12,58,11.00
2021,03,31,12,59,11.00
2021,03,31,13,00,11.00
2021,03,31,13,01,11.00
2021,03,31,13,02,11.00
2021,03,31,13,03,11.00
2021,03,31,13,04,11.00
2021,03,31,13,05,11.00
2021,03,31,13,06,11.00
2021,03,31,13,07,11.00
2021,03,31,13,08,11.10
2021,03,31,13,09,11.10
2021,03,31,13,10,11.10
2021,03,31,13,11,11.10
2021,03,31,13,12,11.10
2021,03,31,13,13,11.10
2021,03,31,13,14,11.10
2021,03,31,13,15,11.10
2021,03,31,13,16,11.10
2021,03,31,13,17,11.10
2021,03,31,13,18,11.10
2021,03,31,13,19,11.00
2021,03,31,13,20,11.10
2021,03,31,13,21,11.00
2021,03,31,13,22,11.00
2021,03,31,13,23,11.10
2021,03,31,13,24,11.10
2021,03,31,13,25,11.10
2021,03,31,13,26,11.10
2021,03,31,13,27,11.10
2021,03,31,13,28,11.10
2021,03,31,13,29,11.10
2021,03,31,13,30,11.00
2021,03,31,13,31,11.00
2021,03,31,13,32,11.00
2021,03,31,13,33,11.00
2021,03,31,13,34,11.00
2021,03,31,13,35,11.00
2021,03,31,13,36,11.00
2021,03,31,13,37,11.00
2021,03,31,13,38,11.00
2021,03,31,13,39,11.00
2021,03,31,13,40,11.00
2021,03,31,13,41,11.10
2021,03,31,13,42,11.10
2021,03,31,13,43,11.10
2021,03,31,13,44,11.10
2021,03,31,13,45,11.10
2021,03,31,13,46,11.20
2021,03,31,13,47,11.20
2021,03,31,13,48,11.30
2021,03,31,13,49,11.30
2021,03,31,13,50,11.30
2021,03,31,13,51,11.30
2021,03,31,13,52,11.30
2021,03,31,13,53,11.20
2021,03,31,13,54,11.30
2021,03,31,13,55,11.30
2021,03,31,13,56,11.30
2021,03,31,13,57,11.30
2021,03,31,13,58,11.40
2021,03,31,13,59,11.40
2021,03,31,14,00,11.30
2021,03,31,14,01,11.30
2021,03,31,14,02,11.30
2021,03,31,14,03,11.30
2021,03,31,14,04,11.30
2021,03,31,14,05,11.30
2021,03,31,14,06,11.20
2021,03,31,14,07,11.20
2021,03,31,14,08,11.10
2021,03,31,14,09,11.10
2021,03,31,14,10,11.10
2021,03,31,14,11,11.10
2021,03,31,14,12,11.10
2021,03,31,14,13,11.20
2021,03,31,14,14,11.20
2021,03,31,14,15,11.20
2021,03,31,14,16,11.30
2021,03,31,14,17,11.30
2021,03,31,14,18,11.40
2021,03,31,14,19,11.30
2021,03,31,14,20,11.30
2021,03,31,14,21,11.30
2021,03,31,14,22,11.20
2021,03,31,14,23,11.10
2021,03,31,14,24,11.00
2021,03,31,14,25,11.00
2021,03,31,14,26,10.90
2021,03,31,14,27,10.90
2021,03,31,14,28,10.90
2021,03,31,14,29,10.80
2021,03,31,14,30,10.80
2021,03,31,14,31,10.90
2021,03,31,14,32,10.90
2021,03,31,14,33,11.00
2021,03,31,14,34,11.10
2021,03,31,14,35,11.10
2021,03,31,14,36,11.20
2021,03,31,14,37,11.30
2021,03,31,14,38,11.30
2021,03,31,14,39,11.30
2021,03,31,14,40,11.40
2021,03,31,14,41,11.50
2021,03,31,14,42,11.60
2021,03,31,14,43,11.60
2021,03,31,14,44,11.70
2021,03,31,14,45,11.70
2021,03,31,14,46,11.70
2021,03,31,14,47,11.70
2021,03,31,14,48,11.70
2021,03,31,14,49,11.80
2021,03,31,14,50,11.80
2021,03,31,14,51,11.80
2021,03,31,14,52,11.80
2021,03,31,14,53,11.80
2021,03,31,14,54,11.90
2021,03,31,14,55,11.80
2021,03,31,14,56,11.80
2021,03,31,14,57,11.80
2021,03,31,14,58,11.70
2021,03,31,14,59,11.70
2021,03,31,15,00,11.70
2021,03,31,15,01,11.70
2021,03,31,15,02,11.70
2021,03,31,15,03,11.70
2021,03,31,15,04,11.70
2021,03,31,15,05,11.70
2021,03,31,15,06,11.70
2021,03,31,15,07,11.70
2021,03,31,15,08,11.70
2021,03,31,15,09,11.60
2021,03,31,15,10,11.60
2021,03,31,15,11,11.50
2021,03,31,15,12,11.40
2021,03,31,15,13,11.40
2021,03,31,15,14,11.30
2021,03,31,15,15,11.30
2021,03,31,15,16,11.20
2021,03,31,15,17,11.20
2021,03,31,15,18,11.20
2021,03,31,15,19,11.20
2021,03,31,15,20,11.30
2021,03,31,15,21,11.30
2021,03,31,15,22,11.30
2021,03,31,15,23,11.30
2021,03,31,15,24,11.30
2021,03,31,15,25,11.30
2021,03,31,15,26,11.30
2021,03,31,15,27,11.30
2021,03,31,15,28,11.20
2021,03,31,15,29,11.20
2021,03,31,15,30,11.10
2021,03,31,15,31,11.10
2021,03,31,15,32,11.10
2021,03,31,15,33,11.10
2021,03,31,15,34,11.10
2021,03,31,15,35,11.10
2021,03,31,15,36,11.10
2021,03,31,15,37,11.10
2021,03,31,15,38,11.20
2021,03,31,15,39,11.20
2021,03,31,15,40,11.20
2021,03,31,15,41,11.20
2021,03,31,15,42,11.30
2021,03,31,15,43,11.40
2021,03,31,15,44,11.40
2021,03,31,15,45,11.60
2021,03,31,15,46,11.60
2021,03,31,15,47,11.60
2021,03,31,15,48,11.70
2021,03,31,15,49,11.70
2021,03,31,15,50,11.70
2021,03,31,15,51,11.70
2021,03,31,15,52,11.60
2021,03,31,15,53,11.60
2021,03,31,15,54,11.50
2021,03,31,15,55,11.50
2021,03,31,15,56,11.50
2021,03,31,15,57,11.40
2021,03,31,15,58,11.40
2021,03,31,15,59,11.40
2021,03,31,16,00,11.40
2021,03,31,16,01,11.40
2021,03,31,16,02,11.40
2021,03,31,16,03,11.40
2021,03,31,16,04,11.40
2021,03,31,16,05,11.40
2021,03,31,16,06,11.40
2021,03,31,16,07,11.40
2021,03,31,16,08,11.50
2021,03,31,16,09,11.40
2021,03,31,16,10,11.40
2021,03,31,16,11,11.40
2021,03,31,16,12,11.30
2021,03,31,16,13,11.30
2021,03,31,16,14,11.20
2021,03,31,16,15,11.10
2021,03,31,16,16,11.00
2021,03,31,16,17,11.00
2021,03,31,16,18,11.00
2021,03,31,16,19,10.90
2021,03,31,16,20,10.90
2021,03,31,16,21,10.90
2021,03,31,16,22,10.90
2021,03,31,16,23,11.00
2021,03,31,16,24,11.00
2021,03,31,16,25,11.10
2021,03,31,16,26,11.10
2021,03,31,16,27,11.10
2021,03,31,16,28,11.20
2021,03,31,16,29,11.20
2021,03,31,16,30,11.30
2021,03,31,16,31,11.30
2021,03,31,16,32,11.40
2021,03,31,16,33,11.50
2021,03,31,16,34,11.50
2021,03,31,16,35,11.60
2021,03,31,16,36,11.70
2021,03,31,16,37,11.70
2021,03,31,16,38,11.80
2021,03,31,16,39,11.90
2021,03,31,16,40,11.90
2021,03,31,16,41,11.90
2021,03,31,16,42,12.00
2021,03,31,16,43,12.10
2021,03,31,16,44,12.10
2021,03,31,16,45,12.20
2021,03,31,16,46,12.30
2021,03,31,16,47,12.40
2021,03,31,16,48,12.40
2021,03,31,16,49,12.50
2021,03,31,16,50,12.60
2021,03,31,16,51,12.70
2021,03,31,16,52,12.70
2021,03,31,16,53,12.80
2021,03,31,16,54,12.80
2021,03,31,16,55,12.90
2021,03,31,16,56,12.90
2021,03,31,16,57,12.90
2021,03,31,16,58,12.90
2021,03,31,16,59,12.90
2021,03,31,17,00,13.00
2021,03,31,17,01,13.00
2021,03,31,17,02,13.00
2021,03,31,17,03,13.10
2021,03,31,17,04,13.00
2021,03,31,17,05,13.00
2021,03,31,17,06,13.00
2021,03,31,17,07,12.90
2021,03,31,17,08,12.90
2021,03,31,17,09,12.90
2021,03,31,17,10,12.90
2021,03,31,17,11,12.90
2021,03,31,17,12,12.80
2021,03,31,17,13,12.90
2021,03,31,17,14,12.90
2021,03,31,17,15,12.90
2021,03,31,17,16,12.80
2021,03,31,17,17,12.80
2021,03,31,17,18,12.80
2021,03,31,17,19,12.70
2021,03,31,17,20,12.60
2021,03,31,17,21,12.50
2021,03,31,17,22,12.50
2021,03,31,17,23,12.40
2021,03,31,17,24,12.40
2021,03,31,17,25,12.40
2021,03,31,17,26,12.40
2021,03,31,17,27,12.30
2021,03,31,17,28,12.30
2021,03,31,17,29,12.20
2021,03,31,17,30,12.10
2021,03,31,17,31,12.10
2021,03,31,17,32,12.00
2021,03,31,17,33,12.00
2021,03,31,17,34,12.00
2021,03,31,17,35,11.90
2021,03,31,17,36,11.90
2021,03,31,17,37,11.90
2021,03,31,17,38,11.80
2021,03,31,17,39,11.80
2021,03,31,17,40,11.80
2021,03,31,17,41,11.80
2021,03,31,17,42,11.70
2021,03,31,17,43,11.70
2021,03,31,17,44,11.60
2021,03,31,17,45,11.60
2021,03,31,17,46,11.50
2021,03,31,17,47,11.50
2021,03,31,17,48,11.40
2021,03,31,17,49,11.30
2021,03,31,17,50,11.30
2021,03,31,17,51,11.30